Time,TemperatureF,DewpointF,PressureIn,WindDirection,WindDirectionDegrees,WindSpeedMPH,WindSpeedGustMPH,Humidity,HourlyPrecipIn,Conditions,Clouds,dailyrainin,SoftwareType,DateUTC
2013-07-01 00:01:00,70.2,69.6,29.93,SW,225,1.0,2.0,98,0.00,,,0.06,meteohub,2013-07-01 04:01:00,
2013-07-01 00:02:00,70.2,69.6,29.93,South,180,0.0,2.0,98,0.00,,,0.06,meteohub,2013-07-01 04:02:00,
2013-07-01 00:07:00,70.2,69.6,29.93,NE,45,0.0,2.0,98,0.00,,,0.06,meteohub,2013-07-01 04:07:00,
2013-07-01 00:12:00,70.0,69.4,29.93,South,180,2.0,2.0,98,0.00,,,0.06,meteohub,2013-07-01 04:12:00,
2013-07-01 00:17:00,70.0,69.4,29.93,South,180,1.0,2.0,98,0.00,,,0.06,meteohub,2013-07-01 04:17:00,
2013-07-01 00:22:00,69.8,69.3,29.93,South,180,1.0,2.0,98,0.00,,,0.06,meteohub,2013-07-01 04:22:00,
2013-07-01 00:27:00,69.8,69.3,29.93,South,180,2.0,2.0,98,0.00,,,0.06,meteohub,2013-07-01 04:27:00,
2013-07-01 00:32:00,69.8,69.3,29.93,SE,135,1.0,2.0,98,0.01,,,0.07,meteohub,2013-07-01 04:32:00,
2013-07-01 00:37:00,69.8,69.3,29.93,NE,45,1.0,2.0,98,0.01,,,0.07,meteohub,2013-07-01 04:37:00,
2013-07-01 00:42:00,69.8,69.3,29.93,South,180,2.0,2.0,98,0.01,,,0.07,meteohub,2013-07-01 04:42:00,
2013-07-01 00:47:00,69.8,69.3,29.93,SE,135,2.0,4.0,98,0.01,,,0.07,meteohub,2013-07-01 04:47:00,
2013-07-01 00:52:00,69.8,69.3,29.93,NE,45,0.0,4.0,98,0.01,,,0.07,meteohub,2013-07-01 04:52:00,
2013-07-01 00:57:00,69.8,69.3,29.93,NW,315,1.0,4.0,98,0.01,,,0.07,meteohub,2013-07-01 04:57:00,
2013-07-01 01:02:00,69.8,69.3,29.93,SW,225,2.0,3.0,98,0.01,,,0.07,meteohub,2013-07-01 05:02:00,
2013-07-01 01:07:00,69.8,69.3,29.94,East,90,1.0,2.0,98,0.01,,,0.07,meteohub,2013-07-01 05:07:00,
2013-07-01 01:12:00,69.6,69.3,29.93,NW,315,1.0,2.0,99,0.01,,,0.07,meteohub,2013-07-01 05:12:00,
2013-07-01 01:17:00,69.6,69.3,29.93,NE,45,2.0,2.0,99,0.01,,,0.07,meteohub,2013-07-01 05:17:00,
2013-07-01 01:22:00,69.6,69.3,29.93,South,180,1.0,2.0,99,0.01,,,0.07,meteohub,2013-07-01 05:22:00,
2013-07-01 01:27:00,69.6,69.3,29.93,SE,135,1.0,2.0,99,0.00,,,0.07,meteohub,2013-07-01 05:27:00,
2013-07-01 01:32:00,69.6,69.3,29.93,SE,135,1.0,2.0,99,0.00,,,0.07,meteohub,2013-07-01 05:32:00,
2013-07-01 01:38:00,69.6,69.3,29.93,SE,135,2.0,2.0,99,0.00,,,0.07,meteohub,2013-07-01 05:38:00,
2013-07-01 01:43:00,69.4,69.1,29.93,SE,135,2.0,2.0,99,0.00,,,0.07,meteohub,2013-07-01 05:43:00,
2013-07-01 01:48:00,69.4,69.1,29.93,East,90,1.0,2.0,99,0.01,,,0.07,meteohub,2013-07-01 05:48:00,
2013-07-01 01:53:00,69.4,69.1,29.93,South,180,1.0,2.0,99,0.01,,,0.08,meteohub,2013-07-01 05:53:00,
2013-07-01 01:58:00,69.4,69.1,29.92,South,180,3.0,3.0,99,0.01,,,0.08,meteohub,2013-07-01 05:58:00,
2013-07-01 02:03:00,69.4,69.1,29.93,SE,135,2.0,2.0,99,0.01,,,0.08,meteohub,2013-07-01 06:03:00,
2013-07-01 02:08:00,69.4,69.1,29.94,West,270,1.0,3.0,99,0.01,,,0.08,meteohub,2013-07-01 06:08:00,
2013-07-01 02:13:00,69.4,69.1,29.93,South,180,2.0,3.0,99,0.01,,,0.08,meteohub,2013-07-01 06:13:00,
2013-07-01 02:18:00,69.4,69.1,29.93,South,180,0.0,2.0,99,0.01,,,0.08,meteohub,2013-07-01 06:18:00,
2013-07-01 02:23:00,69.4,69.1,29.93,SE,135,4.0,4.0,99,0.01,,,0.08,meteohub,2013-07-01 06:23:00,
2013-07-01 02:28:00,69.3,68.9,29.92,North,0,3.0,4.0,99,0.01,,,0.08,meteohub,2013-07-01 06:28:00,
2013-07-01 02:33:00,69.3,68.9,29.92,West,270,1.0,4.0,99,0.01,,,0.08,meteohub,2013-07-01 06:33:00,
2013-07-01 02:38:00,69.3,68.9,29.93,South,180,2.0,4.0,99,0.01,,,0.08,meteohub,2013-07-01 06:38:00,
2013-07-01 02:43:00,69.3,68.9,29.92,SE,135,1.0,3.0,99,0.01,,,0.08,meteohub,2013-07-01 06:43:00,
2013-07-01 02:48:00,69.3,68.9,29.92,NE,45,1.0,2.0,99,0.00,,,0.08,meteohub,2013-07-01 06:48:00,
2013-07-01 02:53:00,69.3,68.9,29.92,SE,135,0.0,2.0,99,0.00,,,0.08,meteohub,2013-07-01 06:53:00,
2013-07-01 02:58:00,69.3,68.9,29.91,NW,315,1.0,2.0,99,0.00,,,0.08,meteohub,2013-07-01 06:58:00,
2013-07-01 03:03:00,69.3,68.9,29.91,North,0,0.0,2.0,99,0.00,,,0.08,meteohub,2013-07-01 07:03:00,
2013-07-01 03:08:00,69.1,68.7,29.91,SW,225,0.0,2.0,99,0.00,,,0.08,meteohub,2013-07-01 07:08:00,
2013-07-01 03:13:00,69.1,68.7,29.91,East,90,2.0,2.0,99,0.00,,,0.08,meteohub,2013-07-01 07:13:00,
2013-07-01 03:18:00,69.1,68.7,29.91,NE,45,1.0,2.0,99,0.00,,,0.08,meteohub,2013-07-01 07:18:00,
2013-07-01 03:23:00,69.1,68.7,29.91,SE,135,1.0,2.0,99,0.00,,,0.08,meteohub,2013-07-01 07:23:00,
2013-07-01 03:28:00,69.1,68.7,29.92,NE,45,2.0,3.0,99,0.00,,,0.08,meteohub,2013-07-01 07:28:00,
2013-07-01 03:33:00,69.1,68.7,29.92,South,180,1.0,4.0,99,0.00,,,0.08,meteohub,2013-07-01 07:33:00,
2013-07-01 03:38:00,69.1,68.7,29.91,South,180,1.0,4.0,99,0.00,,,0.08,meteohub,2013-07-01 07:38:00,
2013-07-01 03:43:00,69.1,68.7,29.91,SE,135,0.0,4.0,99,0.00,,,0.08,meteohub,2013-07-01 07:43:00,
2013-07-01 03:48:00,69.1,68.7,29.91,SW,225,1.0,3.0,99,0.00,,,0.08,meteohub,2013-07-01 07:48:00,
2013-07-01 03:53:00,69.1,68.7,29.91,South,180,2.0,2.0,99,0.00,,,0.08,meteohub,2013-07-01 07:53:00,
2013-07-01 03:58:00,69.1,68.7,29.91,SE,135,2.0,2.0,99,0.00,,,0.08,meteohub,2013-07-01 07:58:00,
2013-07-01 04:04:00,69.1,68.7,29.91,South,180,2.0,2.0,99,0.00,,,0.08,meteohub,2013-07-01 08:04:00,
2013-07-01 04:09:00,69.1,68.7,29.91,South,180,0.0,2.0,99,0.00,,,0.08,meteohub,2013-07-01 08:09:00,
2013-07-01 04:14:00,69.1,68.7,29.91,South,180,1.0,2.0,99,0.00,,,0.08,meteohub,2013-07-01 08:14:00,
2013-07-01 04:19:00,69.1,68.7,29.92,SW,225,1.0,2.0,99,0.00,,,0.08,meteohub,2013-07-01 08:19:00,
2013-07-01 04:24:00,69.1,68.7,29.92,South,180,0.0,2.0,99,0.00,,,0.08,meteohub,2013-07-01 08:24:00,
2013-07-01 04:29:00,69.1,68.7,29.92,NW,315,2.0,2.0,99,0.00,,,0.08,meteohub,2013-07-01 08:29:00,
2013-07-01 04:34:00,68.9,68.5,29.92,SE,135,1.0,3.0,99,0.00,,,0.08,meteohub,2013-07-01 08:34:00,
2013-07-01 04:39:00,68.9,68.5,29.92,NW,315,0.0,3.0,99,0.00,,,0.08,meteohub,2013-07-01 08:39:00,
2013-07-01 04:44:00,68.9,68.5,29.92,East,90,0.0,3.0,99,0.00,,,0.08,meteohub,2013-07-01 08:44:00,
2013-07-01 04:49:00,68.9,68.5,29.93,East,90,0.0,2.0,99,0.00,,,0.08,meteohub,2013-07-01 08:49:00,
2013-07-01 04:54:00,68.9,68.5,29.92,SE,135,1.0,2.0,99,0.00,,,0.08,meteohub,2013-07-01 08:54:00,
2013-07-01 04:59:00,68.9,68.5,29.93,SW,225,0.0,2.0,99,0.00,,,0.08,meteohub,2013-07-01 08:59:00,
2013-07-01 05:04:00,68.9,68.5,29.93,West,270,0.0,2.0,99,0.00,,,0.08,meteohub,2013-07-01 09:04:00,
2013-07-01 05:09:00,68.7,68.4,29.93,NW,315,1.0,1.0,99,0.00,,,0.08,meteohub,2013-07-01 09:09:00,
2013-07-01 05:14:00,68.7,68.4,29.93,NW,315,0.0,2.0,99,0.00,,,0.08,meteohub,2013-07-01 09:14:00,
2013-07-01 05:19:00,68.7,68.4,29.93,South,180,0.0,2.0,99,0.00,,,0.08,meteohub,2013-07-01 09:19:00,
2013-07-01 05:24:00,68.5,68.2,29.94,North,0,0.0,2.0,99,0.00,,,0.08,meteohub,2013-07-01 09:24:00,
2013-07-01 05:29:00,68.5,68.2,29.93,South,180,2.0,0.0,99,0.00,,,0.08,meteohub,2013-07-01 09:29:00,
2013-07-01 05:34:00,68.5,68.2,29.94,South,180,2.0,0.0,99,0.00,,,0.08,meteohub,2013-07-01 09:34:00,
2013-07-01 05:39:00,68.4,68.0,29.94,SW,225,2.0,2.0,99,0.00,,,0.08,meteohub,2013-07-01 09:39:00,
2013-07-01 05:44:00,68.4,68.0,29.94,SE,135,1.0,2.0,99,0.00,,,0.08,meteohub,2013-07-01 09:44:00,
2013-07-01 05:49:00,68.4,68.0,29.94,NW,315,2.0,2.0,99,0.00,,,0.08,meteohub,2013-07-01 09:49:00,
2013-07-01 05:54:00,68.4,68.0,29.94,SW,225,1.0,2.0,99,0.00,,,0.08,meteohub,2013-07-01 09:54:00,
2013-07-01 05:59:00,68.4,68.0,29.95,SE,135,1.0,2.0,99,0.00,,,0.08,meteohub,2013-07-01 09:59:00,
2013-07-01 06:04:00,68.4,68.0,29.95,SE,135,1.0,4.0,99,0.00,,,0.08,meteohub,2013-07-01 10:04:00,
2013-07-01 06:09:00,68.4,68.0,29.95,South,180,2.0,4.0,99,0.00,,,0.08,meteohub,2013-07-01 10:09:00,
2013-07-01 06:14:00,68.5,68.2,29.95,East,90,1.0,4.0,99,0.00,,,0.08,meteohub,2013-07-01 10:14:00,
2013-07-01 06:19:00,68.5,68.2,29.95,South,180,1.0,3.0,99,0.00,,,0.08,meteohub,2013-07-01 10:19:00,
2013-07-01 06:24:00,68.5,68.2,29.95,South,180,1.0,3.0,99,0.00,,,0.08,meteohub,2013-07-01 10:24:00,
2013-07-01 06:29:00,68.5,68.2,29.96,SE,135,0.0,3.0,99,0.00,,,0.08,meteohub,2013-07-01 10:29:00,
2013-07-01 06:34:00,68.5,68.2,29.96,South,180,1.0,3.0,99,0.00,,,0.08,meteohub,2013-07-01 10:34:00,
2013-07-01 06:39:00,68.5,68.2,29.96,South,180,1.0,3.0,99,0.00,,,0.08,meteohub,2013-07-01 10:39:00,
2013-07-01 06:44:00,68.5,68.2,29.96,SE,135,2.0,2.0,99,0.00,,,0.08,meteohub,2013-07-01 10:44:00,
2013-07-01 06:49:00,68.5,68.2,29.96,South,180,1.0,2.0,99,0.00,,,0.08,meteohub,2013-07-01 10:49:00,
2013-07-01 06:54:00,68.5,68.2,29.96,South,180,3.0,3.0,99,0.00,,,0.08,meteohub,2013-07-01 10:54:00,
2013-07-01 06:59:00,68.5,68.2,29.96,SW,225,2.0,2.0,99,0.00,,,0.08,meteohub,2013-07-01 10:59:00,
2013-07-01 07:04:00,68.5,68.2,29.96,East,90,2.0,3.0,99,0.00,,,0.08,meteohub,2013-07-01 11:04:00,
2013-07-01 07:09:00,68.5,68.2,29.97,NE,45,0.0,3.0,99,0.00,,,0.08,meteohub,2013-07-01 11:09:00,
2013-07-01 07:14:00,68.7,68.4,29.96,NW,315,0.0,2.0,99,0.00,,,0.08,meteohub,2013-07-01 11:14:00,
2013-07-01 07:19:00,68.7,68.4,29.96,SE,135,0.0,2.0,99,0.00,,,0.08,meteohub,2013-07-01 11:19:00,
2013-07-01 07:24:00,68.7,68.4,29.96,North,0,2.0,2.0,99,0.00,,,0.08,meteohub,2013-07-01 11:24:00,
2013-07-01 07:29:00,68.7,68.4,29.96,NW,315,2.0,2.0,99,0.00,,,0.08,meteohub,2013-07-01 11:29:00,
2013-07-01 07:34:00,68.7,68.4,29.96,North,0,2.0,2.0,99,0.01,,,0.09,meteohub,2013-07-01 11:34:00,
2013-07-01 07:39:00,68.7,68.4,29.96,West,270,2.0,2.0,99,0.01,,,0.09,meteohub,2013-07-01 11:39:00,
2013-07-01 07:44:00,68.7,68.4,29.95,SE,135,0.0,2.0,99,0.01,,,0.09,meteohub,2013-07-01 11:44:00,
2013-07-01 07:49:00,68.7,68.4,29.95,South,180,2.0,2.0,99,0.01,,,0.09,meteohub,2013-07-01 11:49:00,
2013-07-01 07:54:00,68.9,68.5,29.95,South,180,2.0,2.0,99,0.01,,,0.09,meteohub,2013-07-01 11:54:00,
2013-07-01 07:59:00,69.3,68.9,29.96,SW,225,1.0,2.0,99,0.01,,,0.09,meteohub,2013-07-01 11:59:00,
2013-07-01 08:04:00,69.3,68.9,29.96,SW,225,1.0,2.0,99,0.01,,,0.09,meteohub,2013-07-01 12:04:00,
2013-07-01 08:09:00,69.4,69.1,29.95,South,180,1.0,2.0,99,0.01,,,0.09,meteohub,2013-07-01 12:09:00,
2013-07-01 08:14:00,69.6,69.3,29.94,NE,45,1.0,2.0,99,0.01,,,0.09,meteohub,2013-07-01 12:14:00,
2013-07-01 08:19:00,69.4,69.1,29.94,West,270,0.0,1.0,99,0.01,,,0.09,meteohub,2013-07-01 12:19:00,
2013-07-01 08:24:00,69.4,69.1,29.95,SE,135,1.0,2.0,99,0.01,,,0.09,meteohub,2013-07-01 12:24:00,
2013-07-01 08:30:00,69.6,69.3,29.96,West,270,1.0,2.0,99,0.01,,,0.09,meteohub,2013-07-01 12:30:00,
2013-07-01 08:35:00,69.6,69.3,29.95,NE,45,2.0,2.0,99,0.00,,,0.09,meteohub,2013-07-01 12:35:00,
2013-07-01 08:40:00,69.8,69.3,29.96,South,180,2.0,2.0,98,0.00,,,0.09,meteohub,2013-07-01 12:40:00,
2013-07-01 08:45:00,69.8,69.3,29.97,SW,225,1.0,2.0,98,0.00,,,0.09,meteohub,2013-07-01 12:45:00,
2013-07-01 08:50:00,69.8,69.3,29.97,NE,45,1.0,2.0,98,0.00,,,0.09,meteohub,2013-07-01 12:50:00,
2013-07-01 08:55:00,70.0,69.4,29.98,West,270,1.0,2.0,98,0.00,,,0.09,meteohub,2013-07-01 12:55:00,
2013-07-01 09:00:00,70.2,69.6,29.98,NW,315,2.0,2.0,98,0.00,,,0.09,meteohub,2013-07-01 13:00:00,
2013-07-01 09:05:00,70.5,70.0,29.98,SW,225,1.0,3.0,98,0.00,,,0.09,meteohub,2013-07-01 13:05:00,
2013-07-01 09:10:00,71.1,70.2,29.98,NE,45,4.0,4.0,97,0.00,,,0.09,meteohub,2013-07-01 13:10:00,
2013-07-01 09:15:00,71.6,70.3,29.98,NE,45,4.0,4.0,96,0.00,,,0.09,meteohub,2013-07-01 13:15:00,
2013-07-01 09:20:00,71.6,70.3,29.98,NE,45,3.0,4.0,96,0.00,,,0.09,meteohub,2013-07-01 13:20:00,
2013-07-01 09:25:00,71.6,70.3,29.98,NE,45,3.0,4.0,96,0.00,,,0.09,meteohub,2013-07-01 13:25:00,
2013-07-01 09:30:00,71.6,70.3,29.98,NE,45,3.0,4.0,96,0.00,,,0.09,meteohub,2013-07-01 13:30:00,
2013-07-01 09:35:00,71.6,70.3,29.98,NE,45,3.0,3.0,96,0.00,,,0.09,meteohub,2013-07-01 13:35:00,
2013-07-01 12:58:00,80.6,70.3,29.99,South,180,5.0,-999.0,71,-99.99,,,0.09,meteohub,2013-07-01 16:58:00,
2013-07-01 13:03:00,81.1,71.2,29.98,North,0,7.0,7.0,72,0.00,,,0.09,meteohub,2013-07-01 17:03:00,
2013-07-01 13:08:00,81.5,72.0,29.98,NW,315,2.0,5.0,73,0.00,,,0.09,meteohub,2013-07-01 17:08:00,
2013-07-01 13:13:00,82.2,72.3,29.98,North,0,5.0,8.0,72,0.00,,,0.09,meteohub,2013-07-01 17:13:00,
2013-07-01 13:18:00,82.2,70.5,29.98,East,90,4.0,8.0,68,0.00,,,0.09,meteohub,2013-07-01 17:18:00,
2013-07-01 13:23:00,82.4,70.3,29.98,North,0,7.0,8.0,67,0.00,,,0.09,meteohub,2013-07-01 17:23:00,
2013-07-01 13:28:00,81.5,70.0,29.98,NW,315,6.0,9.0,68,0.00,,,0.09,meteohub,2013-07-01 17:28:00,
2013-07-01 13:33:00,81.5,70.7,29.98,North,0,7.0,9.0,70,0.00,,,0.09,meteohub,2013-07-01 17:33:00,
2013-07-01 13:38:00,81.3,70.2,29.98,West,270,4.0,9.0,69,0.00,,,0.09,meteohub,2013-07-01 17:38:00,
2013-07-01 13:43:00,81.1,70.3,29.98,North,0,7.0,9.0,70,0.00,,,0.09,meteohub,2013-07-01 17:43:00,
2013-07-01 13:48:00,81.1,70.3,29.98,South,180,6.0,8.0,70,0.00,,,0.09,meteohub,2013-07-01 17:48:00,
2013-07-01 13:53:00,81.3,70.5,29.98,East,90,2.0,8.0,70,0.00,,,0.09,meteohub,2013-07-01 17:53:00,
2013-07-01 13:58:00,81.5,70.7,29.98,North,0,5.0,8.0,70,0.00,,,0.09,meteohub,2013-07-01 17:58:00,
2013-07-01 14:03:00,81.5,70.3,29.98,NE,45,8.0,8.0,69,0.00,,,0.09,meteohub,2013-07-01 18:03:00,
2013-07-01 14:08:00,81.0,70.2,29.98,South,180,7.0,9.0,70,0.00,,,0.09,meteohub,2013-07-01 18:08:00,
2013-07-01 14:13:00,80.8,70.5,29.98,NE,45,8.0,9.0,71,0.00,,,0.09,meteohub,2013-07-01 18:13:00,
2013-07-01 14:18:00,80.4,70.2,29.98,NE,45,5.0,8.0,71,0.00,,,0.09,meteohub,2013-07-01 18:18:00,
2013-07-01 14:23:00,80.1,70.2,29.98,SE,135,4.0,10.0,72,0.00,,,0.09,meteohub,2013-07-01 18:23:00,
2013-07-01 14:28:00,80.2,70.0,29.98,NE,45,4.0,10.0,71,0.00,,,0.09,meteohub,2013-07-01 18:28:00,
2013-07-01 14:33:00,80.6,70.0,29.98,East,90,4.0,10.0,70,0.00,,,0.09,meteohub,2013-07-01 18:33:00,
2013-07-01 14:38:00,80.8,70.2,29.98,NE,45,3.0,8.0,70,0.00,,,0.09,meteohub,2013-07-01 18:38:00,
2013-07-01 14:43:00,81.1,70.0,29.98,East,90,5.0,8.0,69,0.00,,,0.09,meteohub,2013-07-01 18:43:00,
2013-07-01 14:48:00,81.3,70.2,29.98,SW,225,6.0,9.0,69,0.00,,,0.09,meteohub,2013-07-01 18:48:00,
2013-07-01 14:53:00,81.9,70.7,29.98,South,180,2.0,9.0,69,0.00,,,0.09,meteohub,2013-07-01 18:53:00,
2013-07-01 14:58:00,82.4,70.3,29.98,East,90,4.0,9.0,67,0.00,,,0.09,meteohub,2013-07-01 18:58:00,
2013-07-01 15:03:00,82.6,70.0,29.98,WNW,293,4.0,8.0,66,0.00,,,0.09,meteohub,2013-07-01 19:03:00,
2013-07-01 15:08:00,83.5,70.9,29.98,NW,315,9.0,9.0,66,0.00,,,0.09,meteohub,2013-07-01 19:08:00,
2013-07-01 15:13:00,83.3,70.3,29.97,NE,45,10.0,10.0,65,0.00,,,0.09,meteohub,2013-07-01 19:13:00,
2013-07-01 15:14:00,83.3,70.3,29.97,NE,45,10.0,10.0,65,0.00,,,0.09,meteohub,2013-07-01 19:14:00,
2013-07-01 15:19:00,82.6,69.6,29.98,NE,45,7.0,10.0,65,0.00,,,0.09,meteohub,2013-07-01 19:19:00,
2013-07-01 15:24:00,81.9,69.4,29.98,NE,45,8.0,10.0,66,0.00,,,0.09,meteohub,2013-07-01 19:24:00,
2013-07-01 15:29:00,81.5,69.4,29.98,North,0,7.0,10.0,67,0.00,,,0.09,meteohub,2013-07-01 19:29:00,
2013-07-01 15:34:00,81.5,70.0,29.98,North,0,5.0,10.0,68,0.00,,,0.09,meteohub,2013-07-01 19:34:00,
2013-07-01 15:39:00,81.5,70.0,29.97,West,270,8.0,8.0,68,0.00,,,0.09,meteohub,2013-07-01 19:39:00,
2013-07-01 15:44:00,81.3,69.8,29.97,NE,45,4.0,8.0,68,0.00,,,0.09,meteohub,2013-07-01 19:44:00,
2013-07-01 15:49:00,81.5,70.0,29.97,North,0,4.0,8.0,68,0.00,,,0.09,meteohub,2013-07-01 19:49:00,
2013-07-01 15:54:00,81.3,69.8,29.97,North,0,6.0,8.0,68,0.00,,,0.09,meteohub,2013-07-01 19:54:00,
2013-07-01 15:59:00,81.0,69.4,29.97,NE,45,4.0,10.0,68,0.00,,,0.09,meteohub,2013-07-01 19:59:00,
2013-07-01 16:04:00,81.0,69.4,29.97,North,0,8.0,10.0,68,0.00,,,0.09,meteohub,2013-07-01 20:04:00,
2013-07-01 16:09:00,81.3,70.5,29.97,North,0,6.0,10.0,70,0.00,,,0.09,meteohub,2013-07-01 20:09:00,
2013-07-01 16:14:00,82.0,70.9,29.97,North,0,4.0,8.0,69,0.00,,,0.09,meteohub,2013-07-01 20:14:00,
2013-07-01 16:19:00,82.6,71.4,29.97,NNW,338,5.0,8.0,69,0.00,,,0.09,meteohub,2013-07-01 20:19:00,
2013-07-01 16:24:00,83.5,71.4,29.97,NE,45,4.0,8.0,67,0.00,,,0.09,meteohub,2013-07-01 20:24:00,
2013-07-01 16:29:00,83.5,70.9,29.97,NE,45,7.0,9.0,66,0.00,,,0.09,meteohub,2013-07-01 20:29:00,
2013-07-01 16:34:00,82.8,70.2,29.97,North,0,8.0,10.0,66,0.00,,,0.09,meteohub,2013-07-01 20:34:00,
2013-07-01 16:39:00,82.6,70.5,29.97,SSW,203,8.0,10.0,67,0.00,,,0.09,meteohub,2013-07-01 20:39:00,
2013-07-01 16:44:00,82.8,70.7,29.97,NW,315,15.0,15.0,67,0.00,,,0.09,meteohub,2013-07-01 20:44:00,
2013-07-01 16:49:00,82.2,70.2,29.97,NE,45,8.0,15.0,67,0.00,,,0.09,meteohub,2013-07-01 20:49:00,
2013-07-01 16:54:00,81.5,70.0,29.98,NE,45,8.0,15.0,68,0.00,,,0.09,meteohub,2013-07-01 20:54:00,
2013-07-01 16:59:00,81.5,70.3,29.98,NE,45,4.0,15.0,69,0.00,,,0.09,meteohub,2013-07-01 20:59:00,
2013-07-01 17:04:00,82.2,70.2,29.97,North,0,4.0,9.0,67,0.00,,,0.09,meteohub,2013-07-01 21:04:00,
2013-07-01 17:09:00,81.9,69.8,29.97,North,0,8.0,9.0,67,0.00,,,0.09,meteohub,2013-07-01 21:09:00,
2013-07-01 17:14:00,81.3,69.8,29.97,North,0,4.0,9.0,68,0.00,,,0.09,meteohub,2013-07-01 21:14:00,
2013-07-01 17:19:00,81.3,70.2,29.98,NW,315,1.0,9.0,69,0.00,,,0.09,meteohub,2013-07-01 21:19:00,
2013-07-01 17:24:00,81.3,70.2,29.98,NW,315,1.0,8.0,69,0.00,,,0.09,meteohub,2013-07-01 21:24:00,
2013-07-01 17:29:00,81.3,70.2,29.98,NW,315,1.0,8.0,69,0.00,,,0.09,meteohub,2013-07-01 21:29:00,
2013-07-01 17:35:00,81.1,69.6,29.98,South,180,6.0,6.0,68,0.00,,,0.09,meteohub,2013-07-01 21:35:00,
2013-07-01 17:40:00,81.0,69.4,29.98,North,0,7.0,7.0,68,0.00,,,0.09,meteohub,2013-07-01 21:40:00,
2013-07-01 17:45:00,81.0,69.4,29.98,North,0,7.0,7.0,68,0.00,,,0.09,meteohub,2013-07-01 21:45:00,
2013-07-01 17:50:00,80.4,69.8,29.97,North,0,2.0,7.0,70,0.00,,,0.09,meteohub,2013-07-01 21:50:00,
2013-07-01 17:55:00,80.4,69.8,29.98,North,0,2.0,7.0,70,0.00,,,0.09,meteohub,2013-07-01 21:55:00,
2013-07-01 18:00:00,80.1,69.8,29.97,West,270,6.0,7.0,71,0.00,,,0.09,meteohub,2013-07-01 22:00:00,
2013-07-01 18:05:00,80.1,69.8,29.98,West,270,6.0,6.0,71,0.00,,,0.09,meteohub,2013-07-01 22:05:00,
2013-07-01 18:10:00,80.1,69.8,29.98,West,270,6.0,6.0,71,0.00,,,0.09,meteohub,2013-07-01 22:10:00,
2013-07-01 18:15:00,79.5,70.2,29.98,NE,45,4.0,6.0,73,0.00,,,0.09,meteohub,2013-07-01 22:15:00,
2013-07-01 18:20:00,79.5,70.2,29.98,East,90,5.0,6.0,73,0.00,,,0.09,meteohub,2013-07-01 22:20:00,
2013-07-01 18:25:00,79.5,70.2,29.97,North,0,3.0,6.0,73,0.00,,,0.09,meteohub,2013-07-01 22:25:00,
2013-07-01 18:30:00,79.3,70.0,29.97,North,0,4.0,7.0,73,0.00,,,0.09,meteohub,2013-07-01 22:30:00,
2013-07-01 18:35:00,79.3,70.0,29.98,North,0,4.0,7.0,73,0.00,,,0.09,meteohub,2013-07-01 22:35:00,
2013-07-01 18:40:00,79.3,70.0,29.97,North,0,4.0,7.0,73,0.00,,,0.09,meteohub,2013-07-01 22:40:00,
2013-07-01 18:45:00,79.2,70.5,29.98,NW,315,6.0,6.0,75,0.00,,,0.09,meteohub,2013-07-01 22:45:00,
2013-07-01 18:50:00,79.2,70.5,29.97,NW,315,6.0,6.0,75,0.00,,,0.09,meteohub,2013-07-01 22:50:00,
2013-07-01 18:55:00,79.2,70.5,29.98,NW,315,6.0,6.0,75,0.00,,,0.09,meteohub,2013-07-01 22:55:00,
2013-07-01 19:00:00,78.4,71.1,29.98,NW,315,6.0,6.0,78,0.00,,,0.09,meteohub,2013-07-01 23:00:00,
2013-07-01 19:05:00,78.1,70.7,29.98,NE,45,3.0,6.0,78,0.00,,,0.09,meteohub,2013-07-01 23:05:00,
2013-07-01 19:10:00,78.1,71.1,29.98,North,0,7.0,7.0,79,0.00,,,0.09,meteohub,2013-07-01 23:10:00,
2013-07-01 19:15:00,78.1,71.1,29.98,North,0,7.0,7.0,79,0.00,,,0.09,meteohub,2013-07-01 23:15:00,
2013-07-01 19:20:00,78.1,71.1,29.98,North,0,7.0,7.0,79,0.00,,,0.09,meteohub,2013-07-01 23:20:00,
2013-07-01 19:25:00,77.9,71.2,29.99,SW,225,2.0,7.0,80,0.00,,,0.09,meteohub,2013-07-01 23:25:00,
2013-07-01 19:30:00,78.1,71.8,29.99,East,90,5.0,7.0,81,0.00,,,0.09,meteohub,2013-07-01 23:30:00,
2013-07-01 19:35:00,78.1,71.4,29.99,South,180,2.0,7.0,80,0.00,,,0.09,meteohub,2013-07-01 23:35:00,
2013-07-01 19:40:00,77.9,71.2,29.99,NW,315,4.0,11.0,80,0.00,,,0.09,meteohub,2013-07-01 23:40:00,
2013-07-01 19:45:00,77.7,71.1,29.99,SW,225,2.0,11.0,80,0.00,,,0.09,meteohub,2013-07-01 23:45:00,
2013-07-01 19:50:00,77.5,71.2,30.00,NE,45,3.0,11.0,81,0.00,,,0.09,meteohub,2013-07-01 23:50:00,
2013-07-01 19:55:00,77.4,71.1,30.00,NW,315,2.0,8.0,81,0.00,,,0.09,meteohub,2013-07-01 23:55:00,
2013-07-01 20:00:00,77.2,70.9,30.00,North,0,4.0,8.0,81,0.00,,,0.09,meteohub,2013-07-02 00:00:00,
2013-07-01 20:05:00,77.2,70.9,30.00,North,0,7.0,8.0,81,0.00,,,0.00,meteohub,2013-07-02 00:05:00,
2013-07-01 20:10:00,77.2,70.9,30.00,North,0,7.0,7.0,81,0.00,,,0.00,meteohub,2013-07-02 00:10:00,
2013-07-01 20:15:00,76.8,71.2,30.01,NW,315,6.0,7.0,83,0.00,,,0.00,meteohub,2013-07-02 00:15:00,
2013-07-01 20:20:00,76.8,71.2,30.01,NW,315,3.0,9.0,83,0.00,,,0.00,meteohub,2013-07-02 00:20:00,
2013-07-01 20:25:00,76.6,71.1,30.01,East,90,4.0,9.0,83,0.00,,,0.00,meteohub,2013-07-02 00:25:00,
2013-07-01 20:30:00,76.5,71.2,30.01,NE,45,5.0,6.0,84,0.00,,,0.00,meteohub,2013-07-02 00:30:00,
2013-07-01 20:35:00,76.5,71.2,30.01,NE,45,5.0,6.0,84,0.00,,,0.00,meteohub,2013-07-02 00:35:00,
2013-07-01 20:40:00,76.5,71.2,30.01,NE,45,5.0,6.0,84,0.00,,,0.00,meteohub,2013-07-02 00:40:00,
2013-07-01 20:47:00,76.1,70.9,30.01,North,0,3.0,5.0,84,0.00,,,0.00,meteohub,2013-07-02 00:47:00,
2013-07-01 20:52:00,76.1,70.9,30.01,North,0,3.0,5.0,84,0.00,,,0.00,meteohub,2013-07-02 00:52:00,
2013-07-01 20:57:00,76.1,70.9,30.01,North,0,3.0,3.0,84,0.00,,,0.00,meteohub,2013-07-02 00:57:00,
2013-07-01 21:34:00,75.6,71.1,30.01,NE,45,8.0,-999.0,86,0.00,,,0.00,meteohub,2013-07-02 01:34:00,
2013-07-01 21:39:00,75.6,71.1,30.01,NE,45,8.0,8.0,86,0.00,,,0.00,meteohub,2013-07-02 01:39:00,
2013-07-01 21:44:00,75.6,71.1,30.01,NE,45,8.0,8.0,86,0.00,,,0.00,meteohub,2013-07-02 01:44:00,
2013-07-01 22:37:00,74.5,71.1,30.03,SE,135,2.0,-999.0,89,0.00,,,0.00,meteohub,2013-07-02 02:37:00,
2013-07-01 22:42:00,74.5,71.1,30.04,SE,135,2.0,2.0,89,0.00,,,0.00,meteohub,2013-07-02 02:42:00,
2013-07-01 22:47:00,74.3,70.9,30.03,South,180,2.0,2.0,89,0.00,,,0.00,meteohub,2013-07-02 02:47:00,
2013-07-01 22:52:00,74.3,70.9,30.04,SE,135,3.0,3.0,89,0.00,,,0.00,meteohub,2013-07-02 02:52:00,
2013-07-01 22:57:00,74.1,70.7,30.04,North,0,3.0,3.0,89,0.00,,,0.00,meteohub,2013-07-02 02:57:00,
2013-07-01 23:02:00,74.1,70.7,30.04,North,0,3.0,3.0,89,0.00,,,0.00,meteohub,2013-07-02 03:02:00,
2013-07-01 23:07:00,74.1,70.7,30.04,North,0,3.0,3.0,89,0.00,,,0.00,meteohub,2013-07-02 03:07:00,
2013-07-01 23:12:00,73.6,70.2,30.04,East,90,2.0,3.0,89,0.00,,,0.00,meteohub,2013-07-02 03:12:00,
2013-07-01 23:17:00,73.6,70.2,30.04,NW,315,1.0,3.0,89,0.00,,,0.00,meteohub,2013-07-02 03:17:00,
2013-07-01 23:22:00,73.6,70.2,30.04,West,270,1.0,3.0,89,0.00,,,0.00,meteohub,2013-07-02 03:22:00,
2013-07-01 23:27:00,73.6,70.2,30.04,South,180,2.0,2.0,89,0.00,,,0.00,meteohub,2013-07-02 03:27:00,
2013-07-01 23:32:00,73.6,70.2,30.04,South,180,2.0,2.0,89,0.00,,,0.00,meteohub,2013-07-02 03:32:00,
2013-07-01 23:37:00,73.6,70.2,30.04,NE,45,2.0,2.0,89,0.00,,,0.00,meteohub,2013-07-02 03:37:00,
2013-07-01 23:42:00,73.6,70.2,30.04,NW,315,2.0,2.0,89,0.00,,,0.00,meteohub,2013-07-02 03:42:00,
2013-07-01 23:47:00,73.6,70.2,30.04,NW,315,2.0,4.0,89,0.00,,,0.00,meteohub,2013-07-02 03:47:00,
2013-07-01 23:52:00,73.6,70.2,30.04,NW,315,2.0,4.0,89,0.00,,,0.00,meteohub,2013-07-02 03:52:00,
2013-07-01 23:53:00,73.6,70.2,30.04,NW,315,2.0,4.0,89,0.00,,,0.00,meteohub,2013-07-02 03:53:00,